Location: Domicella
(40.8833°N, 14.5833°E)
Time: 20:46:27
(UTC+00:00)

Cosmos 1437 Rocket - Pass Details

Date: 15 May 2026
Orbit: 439 x 476 km, 81.2° (Epoch: 8 June)

Event Time Altitude Azimuth Distance (km) Brightness Sun altitude
Exits shadow 20:03:47 33° 189° (S) 799 3.3 -17.7°
Maximum altitude 20:05:16 89° 282° (WNW) 474 2.4 -17.9°
Drops below altitude 10° 20:08:52 10° 9° (N) 1,643 5.8 -18.4°
Sets 20:10:59 0° 10° (N) 2,530 6.8 -18.6°
